{"data":{"norad_id":68317,"epoch":"2026-05-24T21:19:31.613376Z","epoch_age_seconds":84658,"freshness":"FRESH","line1":"1 68317U 26057Z   26144.88856034  .00297959  00000+0  19297-2 0  9994","line2":"2 68317  97.2860 271.1681 0001194  66.8455 293.2936 15.75189338 10289","mean_motion":15.75189338,"eccentricity":0.0001194,"inclination_deg":97.286,"raan_deg":271.1681,"arg_perigee_deg":66.8455,"mean_anomaly_deg":293.2936,"bstar":0.0019297,"rev_number":1028,"period_min":91.417581700264,"perigee_km":343.28981790897,"apogee_km":344.89508630213,"semimajor_km":6722.2294521055,"source":"CELESTRAK","updated_at":"2026-05-25T13:38:21.920670Z"}}